[[{"header":{"parameterUnit":"m.s-1","parameterCategory":1,"la1":30.2991,"la2":30.254,"lo1":-89.0895,"lo2":-89.0444,"dy":0.0017,"dx":0.0017,"nx":28,"ny":28,"refTime":"2024-03-28T09:00:00:Z","depth":0,"parameterNumber":2,"parameterNumberName":"U-component_of_WINDS"},"data":[0,0,0,0,0,0,0,0,0,0,0,0,0,0,0,0,0,0,0,0,0,0,0,0,0,0,0,0,0,0,0,0,0,0,0,0,0,0,0,0,0,0,0,0,0,0,0,0,0,0,0,0,0,0,0,0,0,0,-2.5776,-2.5776,0,-2.5768,-2.5768,-2.5768,-2.5737,-2.5736,-2.5736,-2.5735,-2.5726,-2.5727,-2.5727,0,0,0,0,0,0,0,0,0,0,0,0,0,-2.5766,-2.5766,-2.5776,-2.5776,-2.5776,-2.5768,-2.5768,-2.5768,-2.5737,-2.5736,-2.5735,-2.5735,-2.5726,-2.5727,-2.5727,0,0,0,0,0,0,0,0,0,0,0,0,0,-2.5765,-2.5767,-2.5776,-2.576,-2.5758,-2.5768,-2.5768,-2.5768,-2.5737,-2.5736,-2.5735,-2.5734,-2.5726,-2.5727,-2.5727,-2.5752,0,0,-2.5729,-2.5729,0,0,0,0,0,0,0,0,-2.5766,-2.5766,-2.5762,-2.5761,-2.5759,-2.5752,-2.5761,-2.5762,-2.5738,-2.5745,-2.5735,-2.5734,-2.5736,-2.5736,-2.5736,-2.5752,-2.5751,-2.5729,-2.573,-2.573,-2.573,0,0,0,0,0,0,0,-2.5766,-2.5766,-2.5773,-2.5762,-2.576,-2.5753,-2.5752,-2.5761,-2.5746,-2.5744,-2.5742,-2.5742,-2.5735,-2.5736,-2.5736,-2.5751,-2.5729,-2.573,-2.573,-2.573,-2.5788,-2.5789,0,0,0,0,0,0,-2.5768,-2.5766,-2.5773,-2.5772,-2.576,-2.5754,-2.5753,-2.5756,-2.5746,-2.5744,-2.5743,-2.574,-2.5735,-2.5735,-2.5735,-2.5764,-2.573,-2.573,-2.5731,-2.5787,-2.5788,-2.5789,0,0,0,0,0,0,-2.5768,-2.5769,-2.5773,-2.5769,-2.5769,-2.5755,-2.5759,-2.5756,-2.5757,-2.5745,-2.5742,-2.5746,-2.5734,-2.5735,-2.5748,-2.5763,-2.5731,-2.5731,-2.5785,-2.5787,-2.5789,-2.5821,0,0,0,0,0,0,-2.5768,-2.5769,-2.5778,-2.5769,-2.5769,-2.5786,-2.576,-2.5757,-2.5758,-2.5755,-2.5748,-2.5745,-2.5734,-2.5748,-2.5749,-2.5763,-2.5732,-2.5784,-2.5786,-2.5788,-2.5819,-2.5824,-2.5828,0,0,0,0,0,-2.5767,-2.5787,-2.5778,-2.5779,-2.578,-2.5787,-2.5787,-2.5773,-2.5759,-2.5768,-2.5761,-2.5746,-2.5762,-2.5749,-2.5751,-2.5765,-2.5783,-2.5785,-2.5788,-2.5816,-2.5823,-2.5828,0,0,0,0,0,0,-2.5797,-2.5785,-2.5776,-2.5793,-2.5791,-2.5782,-2.5792,-2.578,-2.5782,-2.5779,-2.5762,-2.576,-2.5777,-2.5773,-2.5759,-2.579,-2.577,-2.5773,-2.5791,-2.5797,-2.5802,-2.5801,-2.5732,0,0,0,0,0,-2.5806,-2.5812,-2.5802,-2.5818,-2.5818,-2.5806,-2.5808,-2.5798,-2.5795,-2.5794,-2.5788,-2.5786,-2.5791,-2.5794,-2.5798,-2.5819,-2.5817,-2.583,-2.5835,-2.5839,-2.5841,-2.5852,-2.5857,-2.5798,-2.5798,-2.5798,0,0,-2.5823,-2.5818,-2.5823,-2.5824,-2.5822,-2.5829,-2.5805,-2.5814,-2.5819,-2.5795,-2.5808,-2.5804,-2.58,-2.5818,-2.5826,-2.5815,-2.5857,-2.5842,-2.5845,-2.5845,-2.5855,-2.5861,-2.5866,-2.5799,-2.5799,-2.5799,0,0,-2.5859,-2.5856,-2.5869,-2.5867,-2.5864,-2.5856,-2.586,-2.5852,-2.5848,-2.5861,-2.5844,-2.5851,-2.5859,-2.5857,-2.5858,-2.5896,-2.5882,-2.5898,-2.5921,-2.5933,-2.5937,-2.5941,-2.5954,-2.5959,-2.59,-2.5901,-2.5901,0,-2.5881,-2.5891,-2.5878,-2.5887,-2.5889,-2.5869,-2.5883,-2.5882,-2.588,-2.5881,-2.587,-2.5881,-2.5878,-2.5895,-2.5904,-2.5906,-2.5909,-2.5897,-2.5938,-2.5942,-2.5945,-2.5957,-2.5962,-2.5902,-2.5902,-2.5902,-2.5902,0,-2.5918,-2.5926,-2.5937,-2.5936,-2.5939,-2.5951,-2.5939,-2.5944,-2.5935,-2.5928,-2.5942,-2.5937,-2.594,-2.5944,-2.5934,-2.596,-2.5954,-2.5941,-2.592,-2.5953,-2.5964,-2.5969,-2.5905,-2.5904,-2.5904,-2.5903,0,0,-2.597,-2.5963,-2.5967,-2.5966,-2.5962,-2.5968,-2.598,-2.5983,-2.5987,-2.5987,-2.5996,-2.6005,-2.5993,-2.5994,-2.5985,-2.5995,-2.6025,-2.598,-2.598,-2.5988,-2.6052,-2.6061,-2.6067,-2.6016,-2.6017,-2.6018,-2.6052,0,-2.6003,-2.6021,-2.601,-2.603,-2.6037,-2.602,-2.603,-2.6029,-2.6024,-2.603,-2.6025,-2.6031,-2.6015,-2.6015,-2.6025,-2.6019,-2.6037,-2.6017,-2.6024,-2.6024,-2.6023,-2.6072,-2.6081,-2.6114,-2.6057,-2.6057,-2.6058,0,-2.6043,-2.6045,-2.6066,-2.6062,-2.6064,-2.6073,-2.6076,-2.6081,-2.6081,-2.6076,-2.6078,-2.6067,-2.6078,-2.606,-2.6076,-2.6062,-2.6065,-2.6063,-2.6064,-2.6063,-2.6042,-2.6071,-2.6124,-2.6128,-2.6065,-2.6064,-2.6064,0,-2.6077,-2.6086,-2.6099,-2.61,-2.6095,-2.6102,-2.6101,-2.6099,-2.6102,-2.6104,-2.6106,-2.611,-2.6112,-2.6116,-2.6106,-2.6094,-2.6123,-2.6104,-2.612,-2.612,-2.6125,-2.6124,-2.6177,-2.613,-2.613,-2.6129,-2.6129,0,-2.6114,-2.6127,-2.6115,-2.6123,-2.6138,-2.6126,-2.6141,-2.6138,-2.6137,-2.6144,-2.6131,-2.6138,-2.6126,-2.6133,-2.6126,-2.614,-2.6141,-2.6138,-2.6135,-2.6138,-2.6138,-2.6138,-2.6135,-2.6131,-2.613,-2.613,-2.613,0,-2.6153,-2.6146,-2.6159,-2.6155,-2.6154,-2.6165,-2.6161,-2.6169,-2.6164,-2.6174,-2.6175,-2.6167,-2.6175,-2.6166,-2.6173,-2.6168,-2.6187,-2.6182,-2.6187,-2.6185,-2.6201,-2.6199,-2.6254,-2.6261,-2.621,-2.6211,-2.6211,0,-2.6177,-2.6186,-2.6183,-2.6187,-2.6187,-2.6194,-2.6197,-2.6187,-2.6191,-2.6191,-2.6199,-2.6206,-2.621,-2.6222,-2.6217,-2.6222,-2.6217,-2.6236,-2.6217,-2.622,-2.6216,-2.6214,-2.6215,-2.6239,-2.6239,-2.624,-2.624,0,-2.6218,-2.6215,-2.6219,-2.6224,-2.6228,-2.6231,-2.6232,-2.6237,-2.6226,-2.6232,-2.6239,-2.6242,-2.625,-2.6256,-2.626,-2.6259,-2.6248,-2.6247,-2.625,-2.6252,-2.6254,-2.6253,-2.6196,-2.6245,-2.6244,-2.6244,-2.6244,-2.6244,-2.625,-2.6258,-2.6257,-2.6263,-2.6264,-2.6266,-2.6273,-2.627,-2.6276,-2.628,-2.6275,-2.6284,-2.6284,-2.6288,-2.6289,-2.6296,-2.6288,-2.6294,-2.6295,-2.6296,-2.6298,-2.6255,-2.6297,-2.6297,-2.6297,-2.6297,-2.6297,0,-2.629,-2.6289,-2.6295,-2.6298,-2.6303,-2.6294,-2.6296,-2.6301,-2.6309,-2.631,-2.6315,-2.6324,-2.6331,-2.6327,-2.6333,-2.6339,-2.6335,-2.6341,-2.634,-2.634,-2.6305,-2.6301,-2.6345,-2.6345,-2.6345,-2.6345,-2.6345,-2.6345,-2.6311,-2.6325,-2.6321,-2.6335,-2.6334,-2.6343,-2.6344,-2.6347,-2.6348,-2.6358,-2.6364,-2.6362,-2.6361,-2.6367,-2.6373,-2.6372,-2.6374,-2.6382,-2.6379,-2.6347,-2.6342,-2.6337,-2.6333,-2.6383,-2.6383,-2.6413,-2.6413,-2.6413]},{"header":{"parameterUnit":"m.s-1","parameterCategory":1,"la1":30.2991,"la2":30.254,"lo1":-89.0895,"lo2":-89.0444,"dy":0.0017,"dx":0.0017,"nx":28,"ny":28,"refTime":"2024-03-28T09:00:00:Z","depth":0,"parameterNumber":3,"parameterNumberName":"V-component_of_WINDS"},"data":[0,0,0,0,0,0,0,0,0,0,0,0,0,0,0,0,0,0,0,0,0,0,0,0,0,0,0,0,0,0,0,0,0,0,0,0,0,0,0,0,0,0,0,0,0,0,0,0,0,0,0,0,0,0,0,0,0,0,4.1189,4.119,0,4.1222,4.1222,4.1222,4.1252,4.1252,4.1252,4.1253,4.1283,4.1283,4.1284,0,0,0,0,0,0,0,0,0,0,0,0,0,4.1152,4.1153,4.1189,4.119,4.119,4.1221,4.1222,4.1222,4.1252,4.1252,4.1252,4.1253,4.1283,4.1283,4.1284,0,0,0,0,0,0,0,0,0,0,0,0,0,4.1175,4.1153,4.1189,4.1209,4.1211,4.1221,4.1222,4.1222,4.1251,4.1252,4.1253,4.1253,4.1282,4.1283,4.1284,4.1277,0,0,4.1286,4.1286,0,0,0,0,0,0,0,0,4.1173,4.1176,4.1205,4.1207,4.121,4.1233,4.122,4.1241,4.1251,4.1236,4.1253,4.1253,4.1266,4.1268,4.1272,4.1278,4.128,4.1286,4.1286,4.1287,4.1287,0,0,0,0,0,0,0,4.1172,4.1175,4.1202,4.1206,4.1208,4.1215,4.1219,4.1224,4.1247,4.1237,4.1239,4.1243,4.1267,4.1272,4.1273,4.128,4.1286,4.1286,4.1287,4.1287,4.1284,4.1284,0,0,0,0,0,0,4.1167,4.1173,4.1201,4.1203,4.1193,4.1215,4.122,4.1225,4.1247,4.1251,4.1243,4.1244,4.127,4.1272,4.1274,4.1269,4.1287,4.1287,4.1288,4.1285,4.1284,4.1283,0,0,0,0,0,0,4.1167,4.117,4.12,4.1189,4.1193,4.1216,4.1221,4.1225,4.123,4.1251,4.1255,4.1243,4.1271,4.1274,4.1277,4.1271,4.1288,4.1288,4.1285,4.1284,4.1284,4.1258,0,0,0,0,0,0,4.1165,4.1169,4.1167,4.1189,4.1194,4.1202,4.1221,4.1226,4.1232,4.1234,4.1253,4.1257,4.1271,4.1276,4.1277,4.1272,4.1289,4.1286,4.1285,4.1284,4.126,4.1257,4.1254,0,0,0,0,0,4.1164,4.1158,4.1167,4.117,4.1192,4.1201,4.1204,4.1222,4.1231,4.1229,4.1243,4.1256,4.1271,4.1276,4.1278,4.1273,4.1286,4.1285,4.1284,4.1261,4.1257,4.1254,0,0,0,0,0,0,4.1133,4.1161,4.1171,4.1172,4.1184,4.1206,4.1204,4.1217,4.1227,4.1229,4.125,4.1254,4.1255,4.1264,4.1269,4.1268,4.1281,4.128,4.1262,4.1259,4.1256,4.1254,4.1289,0,0,0,0,0,4.1127,4.1133,4.1157,4.1155,4.1161,4.1181,4.1186,4.1199,4.1213,4.1218,4.1232,4.1243,4.1251,4.1255,4.1263,4.1261,4.1266,4.1259,4.1256,4.1254,4.1253,4.1254,4.1251,4.128,4.128,4.128,0,0,4.1113,4.1129,4.1131,4.1149,4.116,4.1166,4.1186,4.1191,4.1195,4.1218,4.1223,4.1233,4.1248,4.1249,4.125,4.1257,4.1246,4.1252,4.125,4.1251,4.1252,4.125,4.1247,4.1279,4.1279,4.1279,0,0,4.1092,4.1104,4.1105,4.1116,4.1133,4.1147,4.1148,4.1168,4.1177,4.1182,4.12,4.1205,4.1217,4.1228,4.1234,4.1218,4.1231,4.122,4.1206,4.1206,4.1204,4.1202,4.1197,4.1195,4.1219,4.1219,4.1219,0,4.1072,4.1082,4.1103,4.1108,4.1115,4.1138,4.1139,4.1149,4.1167,4.1172,4.1179,4.1196,4.1207,4.1212,4.1208,4.1213,4.1214,4.1218,4.1203,4.1201,4.12,4.1195,4.1193,4.1218,4.1218,4.1218,4.1218,0,4.1058,4.1065,4.1064,4.1083,4.109,4.1093,4.1114,4.1118,4.1131,4.1144,4.115,4.1165,4.1177,4.1179,4.119,4.1185,4.1189,4.1199,4.1212,4.1195,4.1192,4.119,4.1216,4.1217,4.1217,4.1217,0,0,4.1017,4.1049,4.1048,4.1058,4.108,4.1085,4.1089,4.1102,4.1106,4.1119,4.1123,4.1134,4.1144,4.1152,4.1165,4.1165,4.1153,4.1176,4.1177,4.1172,4.1149,4.1142,4.1139,4.1162,4.1162,4.1161,4.1148,0,4.1,4.1009,4.1029,4.1032,4.1039,4.1062,4.1065,4.1079,4.1091,4.1099,4.1113,4.1121,4.1133,4.1139,4.114,4.1154,4.1149,4.1155,4.1166,4.1166,4.1162,4.1137,4.1129,4.1116,4.1147,4.1147,4.1147,0,4.098,4.0993,4.0998,4.102,4.1024,4.1027,4.1042,4.1049,4.1064,4.1074,4.1083,4.1098,4.1104,4.1116,4.1124,4.1128,4.1133,4.1141,4.1141,4.1143,4.1155,4.1139,4.1112,4.1111,4.1144,4.1145,4.1145,0,4.0951,4.0969,4.0975,4.0982,4.1009,4.1011,4.1021,4.1038,4.1045,4.1057,4.1063,4.1075,4.1081,4.109,4.1108,4.1115,4.1115,4.1128,4.1123,4.1122,4.1122,4.1122,4.1096,4.1124,4.1124,4.1124,4.1124,0,4.093,4.0932,4.0963,4.0966,4.0969,4.0991,4.0994,4.1007,4.1022,4.1028,4.1047,4.1052,4.1076,4.1083,4.1097,4.1102,4.1105,4.1113,4.1117,4.1111,4.1111,4.1115,4.1117,4.1124,4.1124,4.1124,4.1124,0,4.0898,4.0918,4.0926,4.0951,4.0958,4.0959,4.098,4.0984,4.0999,4.1007,4.1009,4.1032,4.1043,4.1062,4.1077,4.1086,4.1089,4.1095,4.1084,4.1086,4.108,4.1081,4.1057,4.1056,4.1084,4.1084,4.1084,0,4.0883,4.0886,4.0912,4.0918,4.0929,4.0938,4.0946,4.0968,4.0976,4.0995,4.0997,4.1009,4.102,4.1036,4.1053,4.1065,4.1072,4.1063,4.1074,4.1069,4.1073,4.1073,4.1074,4.1061,4.106,4.106,4.106,0,4.0855,4.0866,4.0877,4.0893,4.0902,4.0915,4.0929,4.0932,4.0957,4.0965,4.0977,4.0985,4.1002,4.1014,4.1029,4.104,4.1054,4.1056,4.1056,4.1051,4.1045,4.1049,4.1078,4.1057,4.1057,4.1057,4.1057,4.1057,4.0832,4.0836,4.0856,4.0868,4.0881,4.0894,4.09,4.0916,4.0926,4.0942,4.0955,4.0966,4.0983,4.1005,4.1015,4.1023,4.103,4.1029,4.1029,4.1028,4.1027,4.1043,4.1026,4.1026,4.1026,4.1026,4.1026,0,4.0806,4.082,4.0832,4.0851,4.0861,4.0875,4.0891,4.0898,4.0908,4.0923,4.0935,4.0949,4.0961,4.098,4.0993,4.0997,4.1004,4.1,4.1,4.1002,4.102,4.1019,4.0994,4.0994,4.0994,4.0994,4.0994,4.0994,4.0794,4.0802,4.0815,4.0829,4.0843,4.0855,4.0864,4.0876,4.0888,4.0903,4.0914,4.0927,4.0944,4.0959,4.0971,4.0976,4.0981,4.0975,4.0982,4.0998,4.1001,4.1004,4.1003,4.0975,4.0975,4.0964,4.0964,4.0964]}]]